CW8371 Weather Reports


Display with metric or nautical units.
time (UTC)temp
F
wind
direction
speed
MPH
gust
MPH
rain 1hr
in
rain 24hr
in
rain mn
in
humidity
%
barometer
mb
20190822152503 83 200 0.0 2.0 0.00 0.27 0.01 76 1009.6
20190822152004 83 200 0.0 3.0 0.00 0.27 0.01 76 1009.7
20190822151503 83 200 0.0 3.0 0.00 0.27 0.01 78 1009.7
20190822151004 82 200 0.0 3.0 0.00 0.27 0.01 78 1009.8
20190822150503 82 200 0.0 1.0 0.00 0.27 0.01 78 1009.9
20190822150003 82 200 0.0 1.0 0.00 0.27 0.01 78 1010.1
20190822145504 81 200 0.0 1.0 0.00 0.27 0.01 79 1010.1
20190822145003 81 200 0.0 1.0 0.00 0.27 0.01 79 1010.2
20190822144504 80 200 0.0 3.0 0.00 0.27 0.01 82 1010.2
20190822144003 80 200 0.0 3.0 0.00 0.27 0.01 82 1010.3
20190822143503 80 200 0.0 3.0 0.00 0.27 0.01 83 1010.3
20190822143004 79 200 1.0 4.0 0.00 0.27 0.01 83 1010.3
20190822142503 79 199 2.0 5.0 0.00 0.28 0.01 82 1010.2
20190822142004 79 198 2.0 5.0 0.00 0.30 0.01 82 1010.2
20190822141503 80 196 1.0 4.0 0.00 0.31 0.01 83 1010.1
20190822140503 79 196 1.0 4.0 0.00 0.33 0.01 82 1010.1
20190822140003 79 196 0.0 6.0 0.00 0.33 0.01 83 1010.2
20190822135503 78 196 1.0 6.0 0.00 0.33 0.01 82 1010.2
20190822135004 78 197 0.0 4.0 0.00 0.33 0.01 83 1010.1
20190822134503 78 197 0.0 5.0 0.00 0.33 0.01 83 1010.2
20190822134004 77 197 1.0 5.0 0.00 0.33 0.01 84 1010.0
20190822133504 77 197 1.0 4.0 0.00 0.33 0.01 86 1009.9
20190822133003 77 197 1.0 6.0 0.00 0.33 0.01 85 1010.0
20190822132503 76 198 1.0 6.0 0.00 0.33 0.01 86 1010.1
20190822132005 76 198 0.0 5.0 0.00 0.33 0.01 86 1010.1
20190822131505 76 203 1.0 6.0 0.00 0.33 0.01 86 1010.2
20190822131003 75 205 1.0 6.0 0.00 0.33 0.01 86 1010.2
20190822130503 75 211 0.0 5.0 0.00 0.33 0.01 88 1010.2
20190822130005 74 211 0.0 3.0 0.00 0.33 0.01 89 1010.1
20190822125503 74 211 0.0 3.0 0.00 0.33 0.01 91 1010.1
20190822125004 73 211 0.0 3.0 0.00 0.33 0.01 91 1010.1
20190822124504 72 211 0.0 3.0 0.00 0.34 0.01 91 1010.1
20190822124003 72 211 0.0 1.0 0.00 0.34 0.01 92 1010.2
20190822123503 72 211 0.0 3.0 0.00 0.34 0.01 94 1010.2
20190822123005 71 211 0.0 3.0 0.00 0.34 0.01 95 1010.1
20190822122504 70 0 0.0 0.0 0.00 0.34 0.01 96 1010.2
20190822122003 70 0 0.0 0.0 0.01 0.34 0.01 96 1010.2
20190822121503 70 0 0.0 0.0 0.01 0.34 0.01 97 1010.2
20190822121004 70 0 0.0 0.0 0.01 0.34 0.01 97 1010.2
20190822120504 70 0 0.0 0.0 0.01 0.34 0.01 97 1010.2
20190822120003 69 0 0.0 0.0 0.01 0.34 0.01 98 1010.3
20190822115503 69 0 0.0 0.0 0.01 0.34 0.01 98 1010.3
20190822115004 68 0 0.0 0.0 0.01 0.34 0.01 98 1010.3
20190822114504 68 0 0.0 0.0 0.01 0.34 0.01 98 1010.3
20190822114011 68 0 0.0 0.0 0.01 0.34 0.01 98 1010.3
20190822113504 67 0 0.0 0.0 0.01 0.34 0.01 98 1010.2
20190822113004 67 0 0.0 0.0 0.01 0.34 0.01 97 1010.2
20190822112504 67 0 0.0 0.0 0.00 0.33 0.00 97 1010.2
20190822112004 66 0 0.0 0.0 0.00 0.33 0.00 97 1010.3
20190822111506 66 0 0.0 0.0 0.00 0.33 0.00 97 1010.1
20190822111003 66 0 0.0 0.0 0.00 0.33 0.00 97 1010.2
20190822110504 66 0 0.0 0.0 0.00 0.33 0.00 97 1010.2
20190822110004 66 0 0.0 0.0 0.00 0.33 0.00 97 1010.1
20190822105504 66 0 0.0 0.0 0.00 0.33 0.00 97 1009.9
20190822105004 66 0 0.0 0.0 0.00 0.33 0.00 97 1010.0
20190822104503 65 0 0.0 0.0 0.00 0.33 0.00 97 1010.1
20190822104004 65 0 0.0 0.0 0.00 0.33 0.00 97 1010.0
20190822103505 65 0 0.0 0.0 0.00 0.33 0.00 97 1010.0
20190822103007 65 0 0.0 0.0 0.00 0.33 0.00 97 1009.9
20190822102503 65 0 0.0 0.0 0.00 0.33 0.00 97 1009.7
20190822102004 65 0 0.0 0.0 0.00 0.33 0.00 96 1009.7
20190822101503 65 0 0.0 0.0 0.00 0.33 0.00 96 1009.6
20190822101004 65 0 0.0 0.0 0.00 0.33 0.00 96 1009.7
20190822100503 65 0 0.0 0.0 0.00 0.33 0.00 96 1009.7
20190822100007 65 0 0.0 0.0 0.00 0.33 0.00 96 1009.7
20190822095504 65 0 0.0 0.0 0.00 0.33 0.00 96 1009.5
20190822095003 65 0 0.0 0.0 0.00 0.33 0.00 96 1009.6
20190822094505 65 0 0.0 0.0 0.00 0.33 0.00 96 1009.5
20190822094003 65 0 0.0 0.0 0.00 0.33 0.00 96 1009.5
20190822093503 65 0 0.0 0.0 0.00 0.33 0.00 96 1009.4
20190822093011 65 0 0.0 0.0 0.00 0.33 0.00 96 1009.6
20190822092503 65 0 0.0 0.0 0.00 0.33 0.00 96 1009.6
20190822092003 65 0 0.0 0.0 0.00 0.33 0.00 96 1009.5
20190822091504 65 0 0.0 0.0 0.00 0.33 0.00 96 1009.4
20190822091003 65 0 0.0 0.0 0.00 0.33 0.00 96 1009.4
20190822090506 66 0 0.0 0.0 0.00 0.33 0.00 96 1009.2
20190822090004 66 0 0.0 0.0 0.00 0.33 0.00 96 1009.1
20190822085504 66 0 0.0 0.0 0.00 0.33 0.00 96 1009.2
20190822085003 66 0 0.0 0.0 0.00 0.33 0.00 96 1009.2
20190822084503 66 0 0.0 0.0 0.00 0.33 0.00 96 1009.1
20190822084004 66 0 0.0 0.0 0.00 0.33 0.00 96 1009.2
20190822083503 66 0 0.0 0.0 0.00 0.33 0.00 95 1009.1
20190822083005 66 0 0.0 0.0 0.00 0.33 0.00 95 1009.1
20190822082503 66 0 0.0 0.0 0.00 0.33 0.00 95 1009.0
20190822082004 66 0 0.0 0.0 0.00 0.33 0.00 95 1009.0
20190822081506 66 0 0.0 0.0 0.00 0.33 0.00 95 1009.1
20190822081004 66 0 0.0 0.0 0.00 0.33 0.00 95 1009.2
20190822080503 66 211 0.0 1.0 0.00 0.33 0.00 95 1009.1
20190822080004 66 211 0.0 1.0 0.00 0.33 0.00 95 1009.1
20190822075003 67 0 0.0 0.0 0.00 0.33 0.00 94 1009.0
20190822074503 67 0 0.0 0.0 0.00 0.33 0.00 94 1009.1
20190822074003 67 0 0.0 0.0 0.00 0.33 0.00 94 1009.2
20190822073505 67 0 0.0 0.0 0.00 0.33 0.00 94 1009.1
20190822073004 68 0 0.0 0.0 0.00 0.33 0.00 93 1009.0
20190822072503 68 0 0.0 0.0 0.00 0.33 0.00 93 1009.1
20190822071510 68 0 0.0 0.0 0.00 0.33 0.00 93 1009.0
20190822070503 69 0 0.0 0.0 0.00 0.33 0.00 93 1009.1
20190822070005 69 211 0.0 2.0 0.00 0.33 0.00 92 1009.0
20190822065504 69 211 0.0 2.0 0.00 0.33 0.00 92 1009.3
20190822065003 69 211 0.0 2.0 0.00 0.33 0.00 92 1009.3
20190822064503 69 211 0.0 2.0 0.00 0.33 0.00 92 1009.1
20190822064004 70 211 0.0 3.0 0.00 0.33 0.00 92 1009.1
20190822063504 70 211 0.0 4.0 0.00 0.33 0.00 92 1009.0
20190822063005 70 211 1.0 5.0 0.00 0.33 0.00 92 1009.1
20190822062504 70 211 1.0 5.0 0.00 0.33 0.00 92 1009.2
20190822062004 70 210 1.0 6.0 0.00 0.33 0.00 92 1009.3
20190822061504 70 209 1.0 6.0 0.00 0.33 0.00 92 1009.3
20190822061004 70 206 1.0 6.0 0.00 0.33 0.00 92 1009.4
20190822060503 70 204 1.0 6.0 0.00 0.33 0.00 92 1009.4
20190822060004 70 200 0.0 3.0 0.00 0.33 0.00 92 1016.0
20190822055504 70 200 1.0 5.0 0.00 0.33 0.00 92 1009.3
20190822055003 70 199 1.0 8.0 0.00 0.33 0.00 93 1009.3
20190822054503 70 197 1.0 8.0 0.00 0.33 0.00 93 1009.1
20190822054004 69 193 1.0 6.0 0.00 0.33 0.00 93 1009.1
20190822053503 69 191 0.0 5.0 0.00 0.33 0.00 93 1009.2
20190822053003 69 0 0.0 0.0 0.00 0.33 0.00 93 1009.5
20190822052503 70 185 0.0 5.0 0.00 0.33 0.00 93 1009.6
20190822052005 70 185 0.0 5.0 0.00 0.33 0.00 93 1009.6
20190822051503 70 185 1.0 5.0 0.00 0.33 0.00 93 1009.7
20190822051003 70 185 1.0 5.0 0.00 0.33 0.00 93 1009.5
20190822050504 70 185 0.0 4.0 0.00 0.33 0.00 93 1009.7
20190822050004 70 185 0.0 4.0 0.00 0.33 0.00 93 1009.8
20190822045503 70 185 0.0 4.0 0.00 0.33 0.00 93 1009.7
20190822045004 70 185 0.0 5.0 0.00 0.33 0.00 93 1009.6
20190822044503 70 184 1.0 7.0 0.00 0.33 0.00 93 1009.8
20190822044004 70 183 1.0 7.0 0.00 0.33 0.00 93 1009.8
20190822043504 70 178 1.0 6.0 0.00 0.33 0.00 93 1009.7
20190822043004 70 177 1.0 6.0 0.00 0.33 0.00 93 1009.7
20190822042504 70 175 1.0 7.0 0.00 0.33 0.00 92 1009.7
20190822041004 71 175 0.0 3.0 0.00 0.33 0.00 92 1009.5
20190822040504 71 175 0.0 3.0 0.00 0.33 0.00 92 1009.7
20190822040005 71 175 0.0 4.0 0.00 0.33 0.00 92 1009.8
20190822035504 71 175 0.0 4.0 0.00 0.33 0.33 92 1009.7
20190822035004 71 175 0.0 3.0 0.00 0.33 0.33 92 1009.5
20190822034503 71 175 0.0 3.0 0.00 0.33 0.33 92 1009.4
20190822034004 71 175 0.0 3.0 0.00 0.33 0.33 92 1009.4
20190822033503 72 175 0.0 3.0 0.00 0.33 0.33 92 1009.3
20190822033003 72 175 0.0 3.0 0.00 0.33 0.33 92 1009.4
20190822031003 72 175 0.0 4.0 0.00 0.33 0.33 93 1009.2
20190822030516 72 175 0.0 7.0 0.00 0.33 0.33 93 1009.5
20190822030004 72 176 1.0 7.0 0.00 0.33 0.33 93 1009.4
20190822025504 72 177 1.0 5.0 0.00 0.33 0.33 93 1009.3
20190822025004 72 175 1.0 6.0 0.00 0.33 0.33 94 1009.4
20190822024503 72 169 1.0 6.0 0.00 0.33 0.33 94 1009.3
20190822024004 72 167 1.0 6.0 0.00 0.33 0.33 95 1009.2
20190822023504 72 166 1.0 9.0 0.00 0.33 0.33 95 1009.2
20190822023005 72 166 1.0 9.0 0.00 0.33 0.33 95 1009.2
20190822022503 72 166 0.0 6.0 0.00 0.33 0.33 95 1009.3
20190822022003 72 166 0.0 5.0 0.00 0.33 0.33 96 1009.1
20190822021503 72 166 0.0 5.0 0.00 0.33 0.33 96 1009.1
20190822021003 72 166 1.0 5.0 0.00 0.33 0.33 96 1009.1
20190822020503 72 166 0.0 5.0 0.00 0.33 0.33 96 1009.0
20190822020004 72 166 0.0 4.0 0.00 0.33 0.33 95 1009.1
20190822015503 72 166 0.0 4.0 0.00 0.33 0.33 95 1008.9
20190822015004 72 166 0.0 1.0 0.00 0.33 0.33 95 1008.9
20190822014503 73 166 0.0 1.0 0.00 0.33 0.33 95 1008.7
20190822014003 73 0 0.0 0.0 0.00 0.33 0.33 95 1008.9
20190822013503 73 0 0.0 0.0 0.00 0.33 0.33 95 1009.0
20190822013004 73 0 0.0 0.0 0.00 0.33 0.33 95 1009.0
20190822012503 73 0 0.0 0.0 0.00 0.33 0.33 95 1008.8
20190822012005 73 166 0.0 3.0 0.00 0.33 0.33 94 1009.0
20190822011503 73 166 0.0 3.0 0.00 0.33 0.33 94 1009.0
20190822011003 73 0 0.0 0.0 0.00 0.33 0.33 94 1009.1
20190822010502 74 0 0.0 0.0 0.00 0.33 0.33 94 1009.1
20190822010003 74 166 1.0 7.0 0.00 0.33 0.33 95 1009.2
20190822005503 74 166 1.0 7.0 0.00 0.33 0.33 95 1009.4
20190822005003 74 166 0.0 5.0 0.00 0.33 0.33 94 1009.5
20190822004502 74 166 0.0 5.0 0.00 0.33 0.33 94 1009.5
20190822004003 74 166 0.0 5.0 0.00 0.33 0.33 94 1009.4
20190822003503 74 165 0.0 5.0 0.00 0.33 0.33 94 1009.2
20190822000003 74 166 0.0 5.0 0.00 0.33 0.33 93 1009.4
20190821235503 74 166 0.0 1.0 0.00 0.33 0.33 93 1009.3
20190821235004 74 166 0.0 1.0 0.00 0.33 0.33 93 1009.5
20190821234505 75 0 0.0 0.0 0.00 0.33 0.33 93 1009.6
20190821234003 75 166 0.0 3.0 0.00 0.33 0.33 93 1009.7
20190821233504 75 165 1.0 7.0 0.00 0.33 0.33 93 1009.7
20190821233004 75 164 1.0 10.0 0.00 0.33 0.33 93 1009.6
20190821232504 75 158 1.0 10.0 0.00 0.33 0.33 93 1009.4
20190821232003 75 153 2.0 8.0 0.00 0.33 0.33 93 1009.5
20190821231004 75 136 0.0 8.0 0.00 0.33 0.33 94 1009.6
20190821230503 75 133 0.0 3.0 0.00 0.33 0.33 95 1009.7
20190821230006 75 131 0.0 4.0 0.00 0.33 0.33 95 1009.9
20190821225504 76 131 0.0 4.0 0.00 0.33 0.33 95 1010.1
20190821225006 76 130 0.0 1.0 0.00 0.33 0.33 95 1010.0
20190821224514 76 130 0.0 2.0 0.00 0.33 0.33 95 1009.8
20190821224006 76 130 0.0 2.0 0.00 0.33 0.33 95 1009.8
20190821223505 75 130 0.0 1.0 0.00 0.33 0.33 95 1009.9
20190821223004 75 130 0.0 1.0 0.00 0.33 0.33 95 1009.9
20190821222505 76 130 0.0 1.0 0.00 0.33 0.33 95 1009.8
20190821222003 76 0 0.0 0.0 0.00 0.33 0.33 95 1009.7
20190821221504 76 0 0.0 0.0 0.00 0.33 0.33 95 1009.9
20190821221004 76 0 0.0 0.0 0.00 0.33 0.33 95 1010.1
20190821220503 75 0 0.0 0.0 0.00 0.33 0.33 95 1009.9
20190821220003 75 130 0.0 1.0 0.00 0.33 0.33 95 1009.8
20190821215503 75 130 0.0 1.0 0.00 0.33 0.33 95 1010.1
20190821215003 75 130 0.0 4.0 0.00 0.33 0.33 95 1010.1
20190821214503 75 127 0.0 4.0 0.00 0.33 0.33 95 1010.1
20190821214003 75 127 1.0 6.0 0.00 0.33 0.33 96 1010.0
20190821213511 75 128 0.0 6.0 0.00 0.33 0.33 95 1010.1
20190821213005 74 124 0.0 4.0 0.00 0.33 0.33 95 1010.1
20190821212503 74 124 0.0 4.0 0.00 0.33 0.33 95 1009.9
20190821212004 74 123 0.0 2.0 0.00 0.33 0.33 95 1010.1
20190821211504 74 123 0.0 2.0 0.00 0.33 0.33 95 1010.4
20190821211006 74 123 0.0 2.0 0.00 0.33 0.33 95 1010.5
20190821210503 74 123 0.0 1.0 0.00 0.33 0.33 95 1010.6
20190821210004 74 123 0.0 1.0 0.00 0.33 0.33 95 1010.5
20190821205504 74 0 0.0 0.0 0.00 0.33 0.33 95 1010.5
20190821204505 74 0 0.0 0.0 0.00 0.33 0.33 95 1010.7
20190821204010 73 0 0.0 0.0 0.00 0.33 0.33 95 1010.7
20190821203504 73 0 0.0 0.0 0.00 0.33 0.33 95 1010.9
20190821203005 73 0 0.0 0.0 0.00 0.33 0.33 95 1010.8
20190821202503 73 0 0.0 0.0 0.00 0.33 0.33 95 1010.9
20190821202003 73 0 0.0 0.0 0.00 0.33 0.33 95 1011.0
20190821201503 73 0 0.0 0.0 0.00 0.33 0.33 95 1011.2
20190821201003 73 123 0.0 1.0 0.00 0.33 0.33 95 1011.3
20190821200503 72 123 0.0 2.0 0.00 0.33 0.33 95 1011.3
20190821200004 72 123 0.0 2.0 0.00 0.33 0.33 95 1011.3
20190821195004 72 0 0.0 0.0 0.00 0.33 0.33 95 1011.2
20190821194511 72 0 0.0 0.0 0.00 0.33 0.33 95 1011.2
20190821194004 72 0 0.0 0.0 0.00 0.33 0.33 95 1011.3
20190821193503 72 0 0.0 0.0 0.11 0.33 0.33 95 1011.1
20190821193005 72 0 0.0 0.0 0.18 0.33 0.33 95 1011.2
20190821192504 71 0 0.0 0.0 0.20 0.33 0.33 95 1011.2
20190821192003 71 0 0.0 0.0 0.20 0.33 0.33 95 1011.4
20190821191504 71 0 0.0 0.0 0.20 0.33 0.33 95 1011.6
20190821191003 71 0 0.0 0.0 0.20 0.33 0.33 95 1011.6
20190821190504 71 0 0.0 0.0 0.22 0.33 0.33 95 1011.5
20190821185503 70 123 0.0 2.0 0.26 0.33 0.33 94 1011.5
20190821185003 70 123 0.0 3.0 0.26 0.33 0.33 93 1011.8
20190821184503 70 126 1.0 4.0 0.26 0.33 0.33 92 1011.8
20190821184007 71 135 0.0 5.0 0.26 0.33 0.33 91 1011.8
20190821183504 72 168 0.0 5.0 0.12 0.19 0.19 91 1012.0
20190821183003 72 169 0.0 5.0 0.08 0.15 0.15 89 1012.1
20190821182503 73 171 0.0 7.0 0.06 0.13 0.13 88 1012.1
20190821182004 74 170 1.0 8.0 0.06 0.13 0.13 88 1012.3
20190821181504 74 173 3.0 18.0 0.06 0.13 0.13 86 1012.1
20190821181003 76 169 6.0 21.0 0.05 0.12 0.12 85 1012.3
20190821180503 78 167 5.0 21.0 0.03 0.10 0.10 87 1012.5
20190821180003 79 171 2.0 12.0 0.01 0.08 0.08 86 1012.6
20190821175503 79 175 1.0 12.0 0.00 0.07 0.07 85 1012.4
20190821175006 79 0 0.0 0.0 0.00 0.07 0.07 83 1012.2
20190821174003 80 0 0.0 0.0 0.00 0.07 0.07 84 1012.3
20190821173503 80 0 0.0 0.0 0.00 0.07 0.07 84 1012.3
20190821173004 80 0 0.0 0.0 0.00 0.07 0.07 82 1012.3
20190821172503 80 0 0.0 0.0 0.00 0.07 0.07 82 1012.6
20190821172003 80 0 0.0 0.0 0.00 0.07 0.07 83 1012.6
20190821171504 79 0 0.0 0.0 0.00 0.07 0.07 83 1012.7
20190821171003 79 250 0.0 1.0 0.00 0.07 0.07 85 1012.7
20190821170503 78 250 0.0 1.0 0.00 0.07 0.07 85 1012.8
20190821170004 78 250 0.0 1.0 0.00 0.07 0.07 89 1013.1
20190821165503 77 250 1.0 4.0 0.00 0.07 0.07 87 1013.1
20190821165003 77 250 1.0 4.0 0.00 0.07 0.07 85 1013.5
20190821164504 77 250 0.0 4.0 0.00 0.07 0.07 85 1013.4
20190821164003 77 0 0.0 0.0 0.00 0.07 0.07 85 1013.6
20190821163504 77 0 0.0 0.0 0.00 0.07 0.07 86 1013.6
20190821162504 77 0 0.0 0.0 0.00 0.07 0.07 85 1013.9
20190821162004 77 0 0.0 0.0 0.00 0.07 0.07 88 1013.7
20190821161503 76 0 0.0 0.0 0.00 0.07 0.07 87 1013.6
20190821161003 76 0 0.0 0.0 0.00 0.07 0.07 88 1013.7
20190821160504 75 250 0.0 1.0 0.00 0.07 0.07 86 1013.8
20190821160004 75 250 0.0 1.0 0.00 0.07 0.07 87 1013.8
20190821155503 75 0 0.0 0.0 0.00 0.07 0.07 89 1013.9
20190821154503 74 0 0.0 0.0 0.00 0.07 0.07 92 1014.0
20190821154003 73 0 0.0 0.0 0.00 0.07 0.07 90 1014.1
20190821153503 73 0 0.0 0.0 0.00 0.07 0.07 92 1014.1
20190821153004 73 0 0.0 0.0 0.00 0.07 0.07 93 1014.3